Time,TemperatureF,DewpointF,PressureIn,WindDirection,WindDirectionDegrees,WindSpeedMPH,WindSpeedGustMPH,Humidity,HourlyPrecipIn,Conditions,Clouds,dailyrainin,SoftwareType,DateUTC
2013-05-01 00:02:00,68.0,22.0,29.87,South,184,0.0,6.0,17,0.00,,,0.00,,2013-05-01 06:02:00,
2013-05-01 00:11:00,68.0,22.0,29.87,South,184,0.0,6.0,17,0.00,,,0.00,,2013-05-01 06:11:00,
2013-05-01 00:22:00,68.0,22.0,29.88,WSW,245,0.0,4.0,17,0.00,,,0.00,,2013-05-01 06:22:00,
2013-05-01 00:32:00,67.0,22.0,29.88,WSW,245,0.0,0.0,18,0.00,,,0.00,,2013-05-01 06:32:00,
2013-05-01 00:42:00,67.0,22.0,29.88,WSW,245,0.0,0.0,18,0.00,,,0.00,,2013-05-01 06:42:00,
2013-05-01 00:52:00,66.0,23.0,29.88,WSW,245,0.0,0.0,19,0.00,,,0.00,,2013-05-01 06:52:00,
2013-05-01 01:01:00,65.0,24.0,29.88,WSW,245,0.0,0.0,21,0.00,,,0.00,,2013-05-01 07:01:00,
2013-05-01 01:11:00,65.0,24.0,29.88,WSW,245,0.0,0.0,21,0.00,,,0.00,,2013-05-01 07:11:00,
2013-05-01 01:21:00,64.0,23.0,29.89,SW,219,0.0,0.0,21,0.00,,,0.00,,2013-05-01 07:21:00,
2013-05-01 01:32:00,63.0,25.0,29.89,SW,219,0.0,0.0,23,0.00,,,0.00,,2013-05-01 07:32:00,
2013-05-01 01:41:00,63.0,25.0,29.89,SW,219,0.0,0.0,23,0.00,,,0.00,,2013-05-01 07:41:00,
2013-05-01 01:52:00,63.0,20.0,29.89,West,263,1.0,4.0,19,0.00,,,0.00,,2013-05-01 07:52:00,
2013-05-01 02:01:00,65.0,19.0,29.89,WNW,285,0.0,4.0,17,0.00,,,0.00,,2013-05-01 08:01:00,
2013-05-01 02:11:00,65.0,19.0,29.89,WNW,285,0.0,4.0,17,0.00,,,0.00,,2013-05-01 08:11:00,
2013-05-01 02:21:00,65.0,20.0,29.89,NW,305,0.0,3.0,18,0.00,,,0.00,,2013-05-01 08:21:00,
2013-05-01 02:31:00,64.0,22.0,29.89,NW,308,0.0,0.0,20,0.00,,,0.00,,2013-05-01 08:31:00,
2013-05-01 02:42:00,64.0,22.0,29.89,NW,308,0.0,0.0,20,0.00,,,0.00,,2013-05-01 08:42:00,
2013-05-01 02:53:00,64.0,22.0,29.89,NE,56,0.0,2.0,20,0.00,,,0.00,,2013-05-01 08:53:00,
2013-05-01 03:01:00,64.0,22.0,29.90,NE,56,0.0,0.0,20,0.00,,,0.00,,2013-05-01 09:01:00,
2013-05-01 03:11:00,64.0,22.0,29.90,NE,56,0.0,0.0,20,0.00,,,0.00,,2013-05-01 09:11:00,
2013-05-01 03:21:00,63.0,21.0,29.90,NE,56,0.0,0.0,20,0.00,,,0.00,,2013-05-01 09:21:00,
2013-05-01 03:33:00,62.0,22.0,29.91,NE,56,0.0,0.0,21,0.00,,,0.00,,2013-05-01 09:33:00,
2013-05-01 03:42:00,62.0,22.0,29.91,NE,56,0.0,0.0,21,0.00,,,0.00,,2013-05-01 09:42:00,
2013-05-01 03:52:00,61.0,23.0,29.91,NE,56,0.0,0.0,23,0.00,,,0.00,,2013-05-01 09:52:00,
2013-05-01 04:02:00,60.0,24.0,29.92,NE,56,0.0,0.0,25,0.00,,,0.00,,2013-05-01 10:02:00,
2013-05-01 04:12:00,60.0,24.0,29.92,NE,56,0.0,0.0,25,0.00,,,0.00,,2013-05-01 10:12:00,
2013-05-01 04:22:00,59.0,24.0,29.92,NE,56,0.0,0.0,26,0.00,,,0.00,,2013-05-01 10:22:00,
2013-05-01 04:33:00,59.0,23.0,29.93,NE,56,0.0,0.0,25,0.00,,,0.00,,2013-05-01 10:33:00,
2013-05-01 04:42:00,59.0,23.0,29.93,NE,56,0.0,0.0,25,0.00,,,0.00,,2013-05-01 10:42:00,
2013-05-01 04:52:00,59.0,23.0,29.93,NE,56,0.0,0.0,25,0.00,,,0.00,,2013-05-01 10:52:00,
2013-05-01 05:02:00,60.0,23.0,29.93,WSW,253,0.0,2.0,24,0.00,,,0.00,,2013-05-01 11:02:00,
2013-05-01 05:11:00,60.0,23.0,29.93,WSW,253,0.0,2.0,24,0.00,,,0.00,,2013-05-01 11:11:00,
2013-05-01 05:22:00,62.0,22.0,29.93,WNW,284,2.0,7.0,21,0.00,,,0.00,,2013-05-01 11:22:00,
2013-05-01 05:32:00,63.0,22.0,29.94,WNW,302,1.0,8.0,21,0.00,,,0.00,,2013-05-01 11:32:00,
2013-05-01 05:42:00,63.0,22.0,29.95,North,10,0.0,5.0,21,0.00,,,0.00,,2013-05-01 11:42:00,
2013-05-01 05:52:00,63.0,22.0,29.95,North,10,0.0,5.0,21,0.00,,,0.00,,2013-05-01 11:52:00,
2013-05-01 06:01:00,62.0,23.0,29.95,NNW,338,1.0,5.0,22,0.00,,,0.00,,2013-05-01 12:01:00,
2013-05-01 06:11:00,61.0,22.0,29.96,NE,49,1.0,2.0,22,0.00,,,0.00,,2013-05-01 12:11:00,
2013-05-01 06:21:00,61.0,22.0,29.96,NE,49,1.0,2.0,22,0.00,,,0.00,,2013-05-01 12:21:00,
2013-05-01 06:31:00,61.0,23.0,29.96,NE,39,0.0,0.0,23,0.00,,,0.00,,2013-05-01 12:31:00,
2013-05-01 06:41:00,61.0,23.0,29.96,NE,39,0.0,0.0,23,0.00,,,0.00,,2013-05-01 12:41:00,
2013-05-01 06:52:00,61.0,23.0,29.98,NE,39,0.0,0.0,23,0.00,,,0.00,,2013-05-01 12:52:00,
2013-05-01 07:01:00,61.0,24.0,29.98,NE,39,0.0,0.0,24,0.00,,,0.00,,2013-05-01 13:01:00,
2013-05-01 07:11:00,61.0,24.0,29.98,NE,39,0.0,0.0,24,0.00,,,0.00,,2013-05-01 13:11:00,
2013-05-01 07:21:00,62.0,24.0,30.00,NE,39,0.0,0.0,23,0.00,,,0.00,,2013-05-01 13:21:00,
2013-05-01 07:31:00,62.0,25.0,30.01,NE,39,0.0,0.0,24,0.00,,,0.00,,2013-05-01 13:31:00,
2013-05-01 07:42:00,62.0,25.0,30.01,NE,39,0.0,0.0,24,0.00,,,0.00,,2013-05-01 13:42:00,
2013-05-01 07:52:00,63.0,27.0,30.01,South,187,2.0,4.0,25,0.00,,,0.00,,2013-05-01 13:52:00,
2013-05-01 08:02:00,65.0,29.0,30.02,West,267,0.0,1.0,26,0.00,,,0.00,,2013-05-01 14:02:00,
2013-05-01 08:11:00,65.0,29.0,30.02,West,267,0.0,1.0,26,0.00,,,0.00,,2013-05-01 14:11:00,
2013-05-01 08:21:00,66.0,29.0,30.02,SW,219,2.0,3.0,25,0.00,,,0.00,,2013-05-01 14:21:00,
2013-05-01 08:32:00,67.0,27.0,30.02,West,270,1.0,5.0,22,0.00,,,0.00,,2013-05-01 14:32:00,
2013-05-01 08:42:00,67.0,27.0,30.02,West,270,1.0,5.0,22,0.00,,,0.00,,2013-05-01 14:42:00,
2013-05-01 08:51:00,69.0,30.0,30.02,WNW,293,0.0,4.0,23,0.00,,,0.00,,2013-05-01 14:51:00,
2013-05-01 09:01:00,71.0,27.0,30.02,SW,225,2.0,6.0,19,0.00,,,0.00,,2013-05-01 15:01:00,
2013-05-01 09:11:00,71.0,27.0,30.02,SW,225,2.0,6.0,19,0.00,,,0.00,,2013-05-01 15:11:00,
2013-05-01 09:21:00,73.0,26.0,30.03,NW,323,0.0,2.0,17,0.00,,,0.00,,2013-05-01 15:21:00,
2013-05-01 09:33:00,75.0,26.0,30.03,South,180,1.0,5.0,16,0.00,,,0.00,,2013-05-01 15:33:00,
2013-05-01 09:43:00,75.0,26.0,30.03,South,180,1.0,5.0,16,0.00,,,0.00,,2013-05-01 15:43:00,
2013-05-01 09:53:00,76.0,23.0,30.03,WSW,246,3.0,7.0,14,0.00,,,0.00,,2013-05-01 15:53:00,
2013-05-01 10:03:00,76.0,22.0,30.04,WNW,287,3.0,6.0,13,0.00,,,0.00,,2013-05-01 16:03:00,
2013-05-01 10:12:00,76.0,22.0,30.04,WNW,287,3.0,6.0,13,0.00,,,0.00,,2013-05-01 16:12:00,
2013-05-01 10:22:00,78.0,21.0,30.04,WNW,291,4.0,8.0,12,0.00,,,0.00,,2013-05-01 16:22:00,
2013-05-01 10:31:00,79.0,22.0,30.04,West,270,3.0,8.0,12,0.00,,,0.00,,2013-05-01 16:31:00,
2013-05-01 10:42:00,79.0,22.0,30.04,West,270,3.0,8.0,12,0.00,,,0.00,,2013-05-01 16:42:00,
2013-05-01 10:53:00,80.0,25.0,30.04,WNW,302,5.0,11.0,13,0.00,,,0.00,,2013-05-01 16:53:00,
2013-05-01 11:02:00,82.0,22.0,30.04,WNW,301,2.0,10.0,11,0.00,,,0.00,,2013-05-01 17:02:00,
2013-05-01 11:12:00,82.0,22.0,30.04,WNW,301,2.0,10.0,11,0.00,,,0.00,,2013-05-01 17:12:00,
2013-05-01 11:21:00,82.0,22.0,30.03,West,267,3.0,12.0,11,0.00,,,0.00,,2013-05-01 17:21:00,
2013-05-01 11:31:00,83.0,18.0,30.03,West,277,5.0,12.0,9,0.00,,,0.00,,2013-05-01 17:31:00,
2013-05-01 11:42:00,83.0,18.0,30.03,WSW,257,7.0,15.0,9,0.00,,,0.00,,2013-05-01 17:42:00,
2013-05-01 11:52:00,83.0,18.0,30.03,WSW,257,7.0,15.0,9,0.00,,,0.00,,2013-05-01 17:52:00,
2013-05-01 12:01:00,83.0,18.0,30.03,NW,316,4.0,19.0,9,0.00,,,0.00,,2013-05-01 18:01:00,
2013-05-01 12:11:00,83.0,18.0,30.03,NW,316,4.0,19.0,9,0.00,,,0.00,,2013-05-01 18:11:00,
2013-05-01 12:22:00,84.0,16.0,30.02,West,277,6.0,17.0,8,0.00,,,0.00,,2013-05-01 18:22:00,
2013-05-01 12:32:00,85.0,14.0,30.03,West,264,10.0,17.0,7,0.00,,,0.00,,2013-05-01 18:32:00,
2013-05-01 12:41:00,85.0,14.0,30.03,West,264,10.0,17.0,7,0.00,,,0.00,,2013-05-01 18:41:00,
2013-05-01 12:52:00,85.0,14.0,30.02,West,269,8.0,13.0,7,0.00,,,0.00,,2013-05-01 18:52:00,
2013-05-01 13:02:00,85.0,14.0,30.02,NNW,328,5.0,14.0,7,0.00,,,0.00,,2013-05-01 19:02:00,
2013-05-01 13:11:00,85.0,14.0,30.02,NNW,328,5.0,14.0,7,0.00,,,0.00,,2013-05-01 19:11:00,
2013-05-01 13:22:00,85.0,14.0,30.01,West,259,9.0,14.0,7,0.00,,,0.00,,2013-05-01 19:22:00,
2013-05-01 13:32:00,86.0,15.0,30.01,WNW,298,5.0,14.0,7,0.00,,,0.00,,2013-05-01 19:32:00,
2013-05-01 13:42:00,86.0,15.0,30.01,WNW,298,5.0,14.0,7,0.00,,,0.00,,2013-05-01 19:42:00,
2013-05-01 13:52:00,87.0,12.0,30.01,West,281,8.0,13.0,6,0.00,,,0.00,,2013-05-01 19:52:00,
2013-05-01 14:01:00,87.0,16.0,30.01,NW,326,4.0,12.0,7,0.00,,,0.00,,2013-05-01 20:01:00,
2013-05-01 14:11:00,87.0,16.0,30.01,NW,326,4.0,12.0,7,0.00,,,0.00,,2013-05-01 20:11:00,
2013-05-01 14:21:00,87.0,16.0,30.01,WSW,249,5.0,17.0,7,0.00,,,0.00,,2013-05-01 20:21:00,
2013-05-01 14:32:00,87.0,12.0,30.01,NW,315,4.0,18.0,6,0.00,,,0.00,,2013-05-01 20:32:00,
2013-05-01 14:42:00,87.0,12.0,30.01,NW,315,4.0,18.0,6,0.00,,,0.00,,2013-05-01 20:42:00,
2013-05-01 14:52:00,87.0,12.0,30.01,West,266,6.0,16.0,6,0.00,,,0.00,,2013-05-01 20:52:00,
2013-05-01 15:01:00,87.0,12.0,30.01,WSW,245,9.0,15.0,6,0.00,,,0.00,,2013-05-01 21:01:00,
2013-05-01 15:11:00,87.0,12.0,30.01,WSW,245,9.0,15.0,6,0.00,,,0.00,,2013-05-01 21:11:00,
2013-05-01 15:22:00,87.0,12.0,30.01,WNW,284,7.0,16.0,6,0.00,,,0.00,,2013-05-01 21:22:00,
2013-05-01 15:32:00,87.0,12.0,30.00,West,274,4.0,14.0,6,0.00,,,0.00,,2013-05-01 21:32:00,
2013-05-01 15:43:00,88.0,13.0,29.99,WSW,257,10.0,16.0,6,0.00,,,0.00,,2013-05-01 21:43:00,
2013-05-01 15:53:00,88.0,13.0,29.99,WSW,257,10.0,16.0,6,0.00,,,0.00,,2013-05-01 21:53:00,
2013-05-01 16:03:00,88.0,16.0,29.98,SW,231,2.0,14.0,7,0.00,,,0.00,,2013-05-01 22:03:00,
2013-05-01 16:12:00,88.0,16.0,29.98,SW,231,2.0,14.0,7,0.00,,,0.00,,2013-05-01 22:12:00,
2013-05-01 16:23:00,88.0,13.0,29.98,West,273,4.0,15.0,6,0.00,,,0.00,,2013-05-01 22:23:00,
2013-05-01 16:33:00,87.0,12.0,29.98,West,266,6.0,12.0,6,0.00,,,0.00,,2013-05-01 22:33:00,
2013-05-01 16:42:00,87.0,12.0,29.98,West,266,6.0,12.0,6,0.00,,,0.00,,2013-05-01 22:42:00,
2013-05-01 16:52:00,89.0,13.0,29.98,SW,236,5.0,14.0,6,0.00,,,0.00,,2013-05-01 22:52:00,
2013-05-01 17:02:00,88.0,13.0,29.98,WNW,295,7.0,15.0,6,0.00,,,0.00,,2013-05-01 23:02:00,
2013-05-01 17:12:00,88.0,13.0,29.98,WNW,295,7.0,15.0,6,0.00,,,0.00,,2013-05-01 23:12:00,
2013-05-01 17:21:00,88.0,13.0,29.98,NW,318,5.0,13.0,6,0.00,,,0.00,,2013-05-01 23:21:00,
2013-05-01 17:32:00,88.0,13.0,29.98,WSW,253,9.0,15.0,6,0.00,,,0.00,,2013-05-01 23:32:00,
2013-05-01 17:42:00,88.0,13.0,29.98,WSW,253,9.0,15.0,6,0.00,,,0.00,,2013-05-01 23:42:00,
2013-05-01 17:52:00,88.0,9.0,29.97,West,281,10.0,13.0,5,0.00,,,0.00,,2013-05-01 23:52:00,
2013-05-01 18:01:00,88.0,13.0,29.97,WNW,287,5.0,11.0,6,0.00,,,0.00,,2013-05-02 00:01:00,
2013-05-01 18:11:00,88.0,13.0,29.97,WNW,287,5.0,11.0,6,0.00,,,0.00,,2013-05-02 00:11:00,
2013-05-01 18:21:00,87.0,12.0,29.97,WNW,297,8.0,13.0,6,0.00,,,0.00,,2013-05-02 00:21:00,
2013-05-01 18:32:00,86.0,11.0,29.97,West,270,3.0,13.0,6,0.00,,,0.00,,2013-05-02 00:32:00,
2013-05-01 18:41:00,86.0,11.0,29.97,West,270,3.0,13.0,6,0.00,,,0.00,,2013-05-02 00:41:00,
2013-05-01 18:52:00,86.0,15.0,29.97,WNW,288,2.0,7.0,7,0.00,,,0.00,,2013-05-02 00:52:00,
2013-05-01 19:01:00,85.0,14.0,29.98,WNW,284,4.0,10.0,7,0.00,,,0.00,,2013-05-02 01:01:00,
2013-05-01 19:11:00,85.0,14.0,29.98,WNW,284,4.0,10.0,7,0.00,,,0.00,,2013-05-02 01:11:00,
2013-05-01 19:21:00,84.0,10.0,29.98,West,270,4.0,10.0,6,0.00,,,0.00,,2013-05-02 01:21:00,
2013-05-01 19:32:00,84.0,10.0,29.98,West,274,4.0,9.0,6,0.00,,,0.00,,2013-05-02 01:32:00,
2013-05-01 19:42:00,84.0,10.0,29.98,West,274,4.0,9.0,6,0.00,,,0.00,,2013-05-02 01:42:00,
2013-05-01 19:52:00,84.0,10.0,29.99,West,277,3.0,11.0,6,0.00,,,0.00,,2013-05-02 01:52:00,
2013-05-01 20:01:00,83.0,13.0,30.00,WNW,291,2.0,7.0,7,0.00,,,0.00,,2013-05-02 02:01:00,
2013-05-01 20:11:00,83.0,13.0,30.00,WNW,291,2.0,7.0,7,0.00,,,0.00,,2013-05-02 02:11:00,
2013-05-01 20:21:00,82.0,15.0,30.00,West,269,1.0,7.0,8,0.00,,,0.00,,2013-05-02 02:21:00,
2013-05-01 20:32:00,81.0,17.0,30.01,West,263,2.0,5.0,9,0.00,,,0.00,,2013-05-02 02:32:00,
2013-05-01 20:42:00,81.0,17.0,30.01,West,263,2.0,5.0,9,0.00,,,0.00,,2013-05-02 02:42:00,
2013-05-01 20:51:00,81.0,17.0,30.01,West,263,2.0,5.0,9,0.00,,,0.00,,2013-05-02 02:51:00,
2013-05-01 21:01:00,79.0,15.0,30.02,SSW,212,1.0,4.0,9,0.00,,,0.00,,2013-05-02 03:01:00,
2013-05-01 21:11:00,79.0,15.0,30.02,SSW,212,1.0,4.0,9,0.00,,,0.00,,2013-05-02 03:11:00,
2013-05-01 21:22:00,78.0,15.0,30.03,SSW,203,0.0,0.0,9,0.00,,,0.00,,2013-05-02 03:22:00,
2013-05-01 21:32:00,77.0,14.0,30.03,South,191,0.0,2.0,9,0.00,,,0.00,,2013-05-02 03:32:00,
2013-05-01 21:42:00,77.0,14.0,30.03,South,191,0.0,2.0,9,0.00,,,0.00,,2013-05-02 03:42:00,
2013-05-01 21:53:00,75.0,15.0,30.04,South,191,0.0,0.0,10,0.00,,,0.00,,2013-05-02 03:53:00,
2013-05-01 22:03:00,74.0,16.0,30.04,South,191,0.0,0.0,11,0.00,,,0.00,,2013-05-02 04:03:00,
2013-05-01 22:12:00,74.0,16.0,30.04,South,191,0.0,0.0,11,0.00,,,0.00,,2013-05-02 04:12:00,
2013-05-01 22:23:00,72.0,18.0,30.05,South,191,0.0,0.0,13,0.00,,,0.00,,2013-05-02 04:23:00,
2013-05-01 22:33:00,70.0,19.0,30.05,South,191,0.0,0.0,14,0.00,,,0.00,,2013-05-02 04:33:00,
2013-05-01 22:42:00,70.0,19.0,30.05,South,191,0.0,0.0,14,0.00,,,0.00,,2013-05-02 04:42:00,
2013-05-01 22:52:00,69.0,18.0,30.06,South,191,0.0,0.0,14,0.00,,,0.00,,2013-05-02 04:52:00,
2013-05-01 23:02:00,70.0,19.0,30.06,South,191,0.0,0.0,14,0.00,,,0.00,,2013-05-02 05:02:00,
2013-05-01 23:12:00,70.0,19.0,30.06,South,191,0.0,0.0,14,0.00,,,0.00,,2013-05-02 05:12:00,
2013-05-01 23:22:00,68.0,19.0,30.07,South,191,0.0,0.0,15,0.00,,,0.00,,2013-05-02 05:22:00,
2013-05-01 23:32:00,67.0,22.0,30.07,South,191,0.0,0.0,18,0.00,,,0.00,,2013-05-02 05:32:00,
2013-05-01 23:42:00,67.0,22.0,30.07,South,191,0.0,0.0,18,0.00,,,0.00,,2013-05-02 05:42:00,
2013-05-01 23:51:00,66.0,24.0,30.07,South,191,0.0,0.0,20,0.00,,,0.00,,2013-05-02 05:51:00,